Weather History for Decatur, AL

Change the Weather History Date:

Tuesday, October 29, 2013

  Actual Average Record
Temperature  
Mean Temperature 63 °F -  
Max Temperature 78 °F 70 °F 85 °F (1950)
Min Temperature 48 °F 43 °F 24 °F (1952)
Degree Days  
Heating Degree Days 2    
Growing Degree Days 13 (Base 50)    
Moisture  
Dew Point 53 °F    
Average Humidity 89    
Maximum Humidity 100    
Minimum Humidity 50    
Precipitation  
Precipitation 0.01 in - - ()
Sea Level Pressure  
Sea Level Pressure 30.26 in    
Wind  
Wind Speed 1 mph (SE)    
Max Wind Speed 10 mph    
Max Gust Speed -    
Visibility 4 miles    
Events Fog    
Averages and records for this station are not official NWS values.
T = Trace of Precipitation, MM = Missing Value Source: NWS Daily Summary

Daily Weather History Graph

Daily Weather History Graph

Search for Another Location

Airport:

Trip Planner

Search our weather history database for the weather conditions in past years. The results will help you decide how hot, cold, wet, or windy it might be!

Date:

Astronomy

Oct. 29, 2013 Rise Set
Actual Time 7:05 AM CDT 5:56 PM CDT
Civil Twilight 6:39 AM CDT 6:22 PM CDT
Nautical Twilight 6:10 AM CDT 6:52 PM CDT
Astronomical Twilight 5:40 AM CDT 7:21 PM CDT
Moon 2:07 AM CDT (10/29) 2:59 PM CDT (10/29)
Length of Visible Light 11h 42m
Length of Day
10h 50m
Waning Crescent, 25% of the Moon is Illuminated
Oct 29
Waning Crescent
Nov 3
New
Nov 9
First Quarter
Nov 17
Full
Nov 25
Last Quarter

Hourly Weather History & Observations

Time (CDT) Temp. Dew Point Humidity Pressure Visibility Wind Dir Wind Speed Gust Speed Precip Events Conditions
12:33 AM 53.6 °F 51.8 °F 94% 30.26 in 1.8 mi Calm Calm - 0.01 in   Partly Cloudy
12:43 AM 51.8 °F 51.8 °F 100% 30.26 in 0.5 mi Calm Calm - 0.01 in Fog Fog
12:53 AM 52.0 °F 51.1 °F 97% 30.25 in 1.0 mi East 3.5 mph - 0.01 in   Scattered Clouds
1:16 AM 53.6 °F 51.8 °F 94% 30.26 in 3.0 mi Calm Calm - N/A   Partly Cloudy
1:25 AM 53.6 °F 51.8 °F 94% 30.26 in 2.0 mi Calm Calm - N/A   Clear
1:29 AM 53.6 °F 51.8 °F 94% 30.26 in 1.2 mi Calm Calm - N/A   Partly Cloudy
1:32 AM 53.6 °F 51.8 °F 94% 30.26 in 0.8 mi Calm Calm - N/A   Mist
1:44 AM 51.8 °F 51.8 °F 100% 30.26 in 1.0 mi East 3.5 mph - N/A   Clear
1:53 AM 51.1 °F 50.0 °F 96% 30.25 in 1.0 mi East 3.5 mph - N/A   Clear
2:01 AM 51.8 °F 51.8 °F 100% 30.26 in 0.8 mi East 3.5 mph - N/A   Clear
2:28 AM 50.0 °F 48.2 °F 94% 30.26 in 2.5 mi Calm Calm - N/A   Scattered Clouds
2:35 AM 50.0 °F 50.0 °F 100% 30.27 in 0.8 mi Calm Calm - N/A   Mostly Cloudy
2:47 AM 51.8 °F 51.8 °F 100% 30.26 in 2.0 mi East 3.5 mph - N/A   Mostly Cloudy
2:53 AM 53.1 °F 51.1 °F 93% 30.25 in 4.0 mi East 3.5 mph - N/A   Mostly Cloudy
3:39 AM 53.6 °F 51.8 °F 94% 30.27 in 2.5 mi Calm Calm - N/A   Mostly Cloudy
3:53 AM 53.1 °F 52.0 °F 96% 30.25 in 3.0 mi Calm Calm - N/A   Overcast
4:41 AM 51.8 °F 51.8 °F 100% 30.27 in 2.0 mi Calm Calm - N/A   Partly Cloudy
4:53 AM 51.1 °F 51.1 °F 100% 30.27 in 1.0 mi Calm Calm - N/A   Partly Cloudy
5:00 AM 51.8 °F 50.0 °F 94% 30.27 in 0.8 mi Calm Calm - N/A   Partly Cloudy
5:09 AM 51.8 °F 50.0 °F 94% 30.28 in 1.5 mi Calm Calm - N/A   Scattered Clouds
5:18 AM 51.8 °F 51.8 °F 100% 30.28 in 3.0 mi Calm Calm - N/A   Mostly Cloudy
5:53 AM 53.1 °F 51.1 °F 93% 30.28 in 4.0 mi Calm Calm - N/A   Overcast
6:24 AM 51.8 °F 51.8 °F 100% 30.29 in 2.5 mi Calm Calm - N/A   Partly Cloudy
6:31 AM 51.8 °F 51.8 °F 100% 30.28 in 3.0 mi Calm Calm - N/A   Partly Cloudy
6:39 AM 50.0 °F 48.2 °F 94% 30.28 in 1.5 mi Calm Calm - N/A   Partly Cloudy
6:48 AM 51.8 °F 50.0 °F 94% 30.28 in 0.8 mi Calm Calm - N/A   Clear
6:53 AM 51.1 °F 50.0 °F 96% 30.28 in 1.2 mi Calm Calm - N/A   Partly Cloudy
7:03 AM 48.2 °F 48.2 °F 100% 30.28 in 0.8 mi Calm Calm - N/A   Scattered Clouds
7:14 AM 51.8 °F 48.2 °F 88% 30.29 in 1.8 mi Calm Calm - N/A   Mostly Cloudy
7:21 AM 51.8 °F 50.0 °F 94% 30.29 in 2.5 mi Calm Calm - N/A   Mostly Cloudy
7:28 AM 53.6 °F 51.8 °F 94% 30.28 in 3.0 mi Calm Calm - N/A   Mostly Cloudy
7:53 AM 55.9 °F 54.0 °F 93% 30.29 in 3.0 mi Calm Calm - N/A   Overcast
8:53 AM 57.9 °F 55.0 °F 90% 30.30 in 4.0 mi Calm Calm - N/A   Partly Cloudy
9:53 AM 61.0 °F 55.9 °F 83% 30.31 in 7.0 mi SE 4.6 mph - N/A   Clear
10:53 AM 64.9 °F 57.0 °F 75% 30.30 in 8.0 mi Variable 4.6 mph - N/A   Clear
11:53 AM 71.1 °F 57.9 °F 63% 30.27 in 10.0 mi South 8.1 mph - N/A   Scattered Clouds
12:53 PM 73.0 °F 59.0 °F 61% 30.24 in 10.0 mi Variable 4.6 mph - N/A   Scattered Clouds
1:53 PM 73.9 °F 57.9 °F 57% 30.22 in 10.0 mi SW 6.9 mph - N/A   Mostly Cloudy
2:53 PM 75.0 °F 59.0 °F 57% 30.20 in 10.0 mi WSW 3.5 mph - N/A   Scattered Clouds
3:53 PM 78.1 °F 57.9 °F 50% 30.20 in 10.0 mi SSW 10.4 mph - N/A   Mostly Cloudy
4:53 PM 75.9 °F 57.9 °F 54% 30.19 in 10.0 mi South 5.8 mph - N/A   Clear
5:53 PM 69.1 °F 57.9 °F 68% 30.19 in 10.0 mi SSE 4.6 mph - N/A   Clear
6:53 PM 66.0 °F 59.0 °F 78% 30.20 in 10.0 mi Calm Calm - N/A   Clear
7:53 PM 64.0 °F 57.9 °F 80% 30.21 in 10.0 mi SE 3.5 mph - N/A   Clear
8:53 PM 61.0 °F 57.0 °F 87% 30.22 in 9.0 mi SE 3.5 mph - N/A   Clear
9:53 PM 62.1 °F 57.9 °F 86% 30.22 in 9.0 mi SE 3.5 mph - N/A   Clear
10:53 PM 59.0 °F 57.0 °F 93% 30.22 in 8.0 mi Calm Calm - N/A   Clear
11:53 PM 59.0 °F 57.0 °F 93% 30.21 in 7.0 mi SSE 3.5 mph - N/A   Clear